Tracking 26258 objects as of 3-Oct-2022
HD Live streaming from Space Station
objects crossing your sky now

STARLINK-A

Track STARLINK-A now!
10-day predictions
STARLINK-A is classified as:


NORAD ID: 53791
Int'l Code: 2022-111U
Perigee: 319.4 km
Apogee: 328.2 km
Inclination: 53.2 °
Period: 90.9 minutes
Semi major axis: 6694 km
RCS: Unknown
Launch date: September 11, 2022
Source: United States (US)
Launch site: AIR FORCE EASTERN TEST RANGE (AFETR)
aabbcc
Your satellite tracking list
Your tracking list is empty




NASA's NSSDC Master Catalog

Two Line Element Set (TLE):
1 53791U 22111U   22275.84494644  .00160825  00000-0  66490-3 0  9993
2 53791  53.2033 158.0162 0006543 322.8436  37.2135 15.84875936  3451
Source of the keplerian elements: AFSPC